Location: Chagrin Falls Park
(41.4139°N, 81.3865°W)
Time: 04:07:19
(UTC+00:00)

STARLINK-2727 - Pass Details

Date: 11 December 2021
Orbit: 546 x 548 km, 53.1° (Epoch: 18 January)

Event Time Altitude Azimuth Distance (km) Brightness Sun altitude
Rises 22:53:36 0° 309° (NW) 2,725 7.6 -10.5°
Reaches altitude 10° 22:56:15 10° 326° (NW) 1,831 6.5 -11.0°
Maximum altitude 22:59:31 22° 17° (NNE) 1,246 5.1 -11.6°
Enters shadow 23:01:21 17° 52° (NE) 1,459 5.2 -11.9°
